706  
ASUS43 KTOP 290908  
RWRKS  
 
WEATHER ROUNDUP FOR KANSAS  
NATIONAL WEATHER SERVICE GOODLAND KS  
400 AM CDT SAT APR 29 2017  
 
NOTE: "FAIR" INDICATES FEW OR NO CLOUDS BELOW 12,000 FEET WITH NO  
SIGNIFICANT WEATHER AND/OR S TO VISIBILITY
.  
 
KSZ001>006-013>018-027>032-041>047-291000-  
NORTHWEST KANSAS  
 
CITY SKY/WX TMP DP RH WIND PRES REMARKS
 
GOODLAND LGT SNOW 32 32 100 NE21G29 29.97F FOG WCI 20  
HAYS LGT RAIN 39 37 92 N23G32 29.95R WCI 28  
HILL CITY LGT RAIN 38 37 97 NE20G31 29.97F WCI 28  
RUSSELL LGT RAIN 39 38 96 N18G29 29.94R WCI 30  

 
 
KSZ061>065-074>080-084>089-291000-  
SOUTHWEST KANSAS  
 
CITY SKY/WX TMP DP RH WIND PRES REMARKS
 
DODGE CITY LGT RAIN 37 36 96 N21G31 29.87F WCI 26  
ELKHART N/A 31 27 86 N13 N/A WCI 21  
GARDEN CITY LGT SNOW 33 31 92 N17 29.89S FOG WCI 22  
GREAT BEND RAIN 39 38 96 N18G31 29.96R WCI 30  
LIBERAL LGT RAIN 37 36 96 N17G32 29.84R WCI 27  
PRATT CLOUDY 38 37 96 N29G36 29.87R WCI 25  

 
 
KSZ066>073-081>083-090>101-291000-  
SOUTHEAST KANSAS  
 
CITY SKY/WX TMP DP RH WIND PRES REMARKS
 
CHANUTE LGT RAIN 51 49 92 N16G25 29.77F  
COFFEYVILLE LGT RAIN 56 54 93 N21G33 29.70F  
HUTCHINSON RAIN 42 40 92 N20G26 29.86R  
MEDICINE LODGE N/A 42 39 89 N16G30 29.82R  
NEWTON LGT RAIN 42 41 96 N13G18 29.87R  
PARSONS CLOUDY 54 52 93 NE8G17 29.76S FOG  
WICHITA INTL LGT RAIN 45 44 97 N24G32 29.78F  
WICHITA JABRA LGT RAIN 44 43 96 N24G35 29.80R  
WICHITA MCCONL CLOUDY 45 43 93 NE22G28 29.77F  
WINFIELD RAIN 48 46 93 N15G22 29.77F  

 
 
KSZ007>012-019>026-033>040-048>060-102>105-291000-  
NORTHEAST KANSAS  
 
CITY SKY/WX TMP DP RH WIND PRES REMARKS
 
CONCORDIA CLOUDY 41 39 93 NE20G28 29.95R  
EMPORIA CLOUDY 44 44 100 NE17 29.84S FOG  
LAWRENCE CLOUDY 46 45 96 VRB5G17 29.90F  
MANHATTAN CLOUDY 44 42 93 NE17G24 29.92R FOG  
MARYSVILLE CLOUDY 41 39 93 NE18G24 29.93F  
OLATHE IND CLOUDY 45 45 100 NE13 29.87F FOG  
OLATHE EXE CLOUDY 44 44 100 NE16G23 29.86F FOG  
SALINA RAIN 44 41 89 N17G25 29.92R  
TOPEKA BILLARD CLOUDY 46 45 96 N10 29.90F  
TOPEKA FORBES CLOUDY 46 45 96 N13 29.88F FOG  

 
 
 
CLICK HERE TO GO TO PREVIOUS BULLETINS.

The Nexlab KS Page Main Text Page